Zurück zum Katalog

STARLINK-37900

AktivKommunikationVLEO
NORAD 69953·PAYLOAD·🇺🇸 United States

Gestartet Jul 9, 2026 von Cape Canaveral Space Force Station

Loading…

Nächste Überflüge (nächste 24 Stunden)

TLE

AktuellSource: CelesTrak SupGP

Epoche: Sep 14, 2026, 22:47 UTC

1 69953C 26157L   26257.94979167 -.00012624  00000+0 -37298-3 0  2572
2 69953  53.1593 359.6678 0001146  85.0937 172.4160 15.34396897    15

Verfolge STARLINK-37900 in Echtzeit mit AllMySat

Download on the App Store